Wetbulb
60.10 59.76 59.74 59.70 59.86 60.03 60.11 60.57 61.31 61.57 61.67 61.87 62.01 61.93 61.77 61.20 60.61 59.55 59.08 58.70 57.98 58.39
59.18 59.28 59.48 59.92 60.12 60.22 60.72 61.02 61.11 61.33 61.11 61.61 61.73 61.90 61.19 60.69 60.07 59.68 59.34 59.12 59.18 58.04
55.58 57.53 57.45 57.03 56.33 59.29 60.12 60.17 60.35 60.13 60.08 59.84 60.27 60.67 60.56 60.80 61.05 60.46 60.39 60.01 58.92 57.50
50.93 51.46 51.53 52.01 52.62 54.52 56.36 57.07 58.66 58.93 59.69 59.82 60.11 60.67 60.72 60.75 60.12 59.14 59.27 57.09 57.66 57.51
48.75 49.03 48.90 48.87 49.07 49.65 50.33 52.44 52.83 53.41 53.49 55.08 56.55 58.12 58.14 57.79 56.24 57.04 55.84 54.80 54.23 54.19
45.67 46.71 46.84 47.25 47.71 47.81 47.89 48.54 50.48 51.29 51.09 51.45 51.64 53.79 54.83 54.75 54.01 53.68 53.67 52.87 52.56 52.02
44.46 44.63 45.39 46.35 46.64 46.77 46.75 46.49 46.89 48.10 48.78 49.10 49.31 49.43 49.97 50.31 50.76 50.87 50.79 50.73 50.61 50.35
43.96 44.15 44.26 44.45 44.78 45.68 45.70 45.46 45.28 45.19 45.77 46.25 46.67 47.06 46.83 46.87 46.60 47.60 48.07 48.05 48.30 48.50
43.00 43.00 42.87 43.01 43.22 43.43 43.44 43.50 43.30 43.48 43.47 43.45 44.43 46.47 47.68 47.16 44.62 45.26 45.93 45.69 45.56 45.67
41.84 41.57 41.69 41.94 41.54 41.17 41.13 41.61 41.89 42.20 42.38 42.19 42.57 45.85 46.93 47.28 43.64 42.19 42.16 43.73 43.62 42.92
40.41 40.05 40.49 40.55 40.20 39.64 39.87 39.99 40.62 41.36 41.67 41.54 42.53 45.56 46.28 46.58 42.82 39.80 38.78 39.56 40.30 40.57
38.77 38.33 38.73 38.52 38.34 38.75 38.94 38.86 39.53 41.59 41.21 41.54 43.12 45.23 45.51 45.61 42.85 39.59 37.99 38.83 39.06 39.71
38.02 36.86 36.70 36.62 36.79 37.83 38.75 39.40 40.38 40.07 41.69 43.25 43.30 44.90 45.72 45.50 44.06 41.79 40.18 39.72 40.55 42.70
36.42 35.65 35.65 35.34 34.95 34.98 34.46 34.88 34.84 36.61 38.00 39.20 41.61 42.41 44.49 45.01 43.93 42.82 41.60 40.40 40.06 40.68
MSLP
1009.49 1009.82 1010.25 1010.89 1011.59 1012.17 1012.53 1012.93 1013.09 1013.47 1013.68 1013.65 1013.37 1013.56 1014.25 1014.42 1014.48 1014.78 1014.95 1015.05 1015.14 1015.22
1009.72 1010.21 1010.70 1011.27 1011.81 1012.24 1012.64 1012.87 1012.75 1013.03 1013.02 1013.16 1013.15 1013.57 1013.79 1013.83 1013.96 1014.14 1014.35 1014.40 1014.50 1014.37
1010.42 1010.41 1010.79 1011.47 1011.65 1011.83 1012.06 1012.25 1012.52 1012.63 1012.66 1012.81 1012.80 1012.98 1013.10 1013.13 1013.42 1013.56 1013.56 1013.63 1013.83 1013.87
1011.17 1011.33 1011.51 1011.69 1011.95 1012.10 1012.17 1012.29 1012.34 1012.28 1012.26 1012.25 1012.06 1012.23 1012.44 1012.43 1012.53 1012.73 1012.87 1013.14 1013.22 1013.32
1012.15 1012.25 1012.40 1012.48 1012.58 1012.66 1012.62 1012.34 1012.46 1012.37 1012.26 1012.27 1012.07 1012.27 1012.31 1012.32 1012.42 1012.34 1012.58 1012.69 1012.87 1012.87
1013.17 1013.17 1013.17 1013.15 1013.05 1012.98 1012.92 1012.65 1012.47 1012.23 1012.15 1012.16 1012.17 1012.19 1012.22 1012.20 1012.17 1012.28 1012.31 1012.35 1012.76 1012.38
1014.06 1014.06 1013.90 1013.64 1013.35 1013.30 1013.50 1013.44 1013.27 1012.82 1012.43 1012.25 1012.09 1012.02 1012.43 1012.05 1012.22 1012.17 1012.15 1012.09 1012.13 1012.27
1014.49 1014.48 1014.31 1013.98 1013.63 1013.59 1013.38 1013.30 1012.91 1012.98 1012.58 1012.09 1012.35 1012.38 1012.40 1011.99 1012.00 1012.15 1012.17 1012.11 1012.11 1012.21
1014.49 1014.42 1014.21 1014.34 1014.25 1014.10 1013.93 1013.64 1013.46 1013.05 1012.77 1012.37 1012.26 1012.15 1011.88 1011.68 1011.98 1012.13 1012.15 1011.77 1011.84 1011.74
1014.92 1014.82 1014.81 1014.67 1014.57 1014.49 1014.36 1013.94 1013.44 1013.08 1012.71 1012.35 1012.17 1012.11 1011.71 1011.60 1011.38 1011.46 1011.81 1011.94 1012.06 1011.89
1015.51 1015.53 1015.10 1014.92 1014.95 1014.54 1014.11 1013.93 1013.53 1013.23 1012.71 1012.49 1012.20 1011.88 1011.57 1011.07 1011.04 1011.14 1011.25 1011.36 1011.55 1011.78
1015.34 1015.09 1015.19 1015.24 1014.94 1014.56 1014.06 1013.67 1013.60 1013.12 1012.40 1012.25 1012.20 1011.72 1011.47 1011.05 1010.86 1010.90 1010.82 1010.58 1010.56 1010.98
1016.05 1016.02 1015.78 1015.49 1015.48 1015.13 1014.76 1014.00 1013.49 1013.34 1012.83 1012.23 1011.76 1011.56 1011.16 1010.87 1010.60 1010.45 1010.29 1010.06 1010.12 1010.24
1015.98 1015.88 1015.62 1015.67 1015.76 1015.15 1014.52 1014.15 1013.65 1013.55 1013.01 1012.35 1011.72 1011.44 1011.07 1010.48 1010.26 1010.03 1009.63 1009.42 1009.47 1009.45
Wind_Speed
9 6 6 5 4 4 6 6 6 7 7 7 5 5 7 6 6 5 7 8 7 5
4 5 5 4 3 4 5 6 8 9 7 10 11 9 9 6 8 8 8 9 10 8
4 4 5 3 1 3 4 5 7 8 9 9 8 9 8 8 9 10 10 9 9 8
6 5 5 4 4 4 1 2 4 5 7 9 11 10 11 12 9 9 9 6 8 11
7 7 6 6 5 4 4 3 2 2 2 3 3 3 5 5 5 8 8 8 7 8
7 7 7 6 6 6 6 5 6 4 4 4 4 4 4 5 5 6 6 6 8 8
7 6 4 3 4 3 4 4 5 5 4 4 4 4 6 5 5 5 6 6 6 6
6 5 6 7 7 6 6 5 4 5 5 4 4 4 6 5 5 6 5 5 5 6
6 6 6 7 6 6 6 6 5 5 6 6 4 7 8 6 5 6 6 6 5 5
7 7 6 5 5 6 6 6 6 6 6 6 6 10 10 10 5 5 6 6 5 5
5 5 6 7 6 6 4 6 6 6 6 7 7 11 12 11 6 6 7 7 7 6
6 8 8 7 7 5 5 4 5 7 8 7 9 12 12 10 5 6 8 7 7 8
5 5 5 5 6 5 6 9 7 7 8 10 9 14 14 11 6 8 7 6 8 15
5 5 6 5 4 5 5 5 6 9 9 9 9 10 17 17 8 7 7 7 6 7
Wind_Direction
116 110 99 99 128 160 179 190 185 212 224 237 235 227 225 225 227 214 215 217 214 214
79 103 113 113 170 187 208 206 210 219 226 234 227 225 221 224 223 219 226 228 229 211
65 44 63 99 6 248 215 218 222 221 221 232 235 232 225 232 233 229 234 235 226 215
57 55 71 78 64 21 27 277 238 239 249 237 228 224 229 237 231 217 228 210 214 224
49 46 47 44 41 23 8 9 343 294 265 280 263 249 238 236 219 220 214 206 204 208
43 39 31 22 16 14 5 0 352 352 340 319 293 284 255 227 217 221 225 206 210 200
37 34 33 41 45 37 0 356 344 337 319 293 280 263 257 249 251 241 226 209 208 203
32 26 16 16 11 358 0 345 343 327 323 325 297 270 271 263 247 242 238 231 223 218
28 21 19 7 1 2 352 344 332 330 322 317 293 288 282 261 260 251 239 232 222 208
14 10 2 357 358 354 346 336 334 324 319 302 289 281 280 271 236 234 243 245 224 215
9 342 341 345 336 334 339 339 338 322 316 303 291 277 274 269 243 230 236 231 229 222
2 357 351 344 341 327 329 326 320 322 323 316 302 288 275 276 245 235 236 230 216 210
317 317 311 318 323 311 315 324 319 305 303 308 311 307 303 292 263 250 246 234 227 221
287 309 306 302 276 297 313 318 323 314 305 296 294 298 303 303 287 259 252 244 235 223